ASTRA 1N

Last updated on Jan. 20, 2021, 6:22 a.m. UTC

1 37775U 11041A   21019.83790299  .00000125  00000-0  00000-0 0  9994
2 37775   0.0448  43.2702 0003294 311.2104  85.7585  1.00271459 24738
UTC
Height (km)
Latitude
Longitude
Inclination
Orbital Period
UTC large
Height (km)
Speed (km/s)
/
Latitude / Longitude
Inclination (degrees)
Orbital Period (minutes)
Azimuth
Elevation
Range (km)
Doppler Factor
iOS Compass Heading
iOS Angle

Next 30 passes for location: Hong Kong

Rise time Rise Azimuth (degrees) Set time Set Azimuth (degrees) Duration Max altitude (degrees)

No matching passes for this satellites